﻿測定場所 (Monitoring sites),日付 (Measurement date),時間 (Measurement time),線量率 最大値 (max) μGy/h,線量率 最小値 (min) μGy/h,線量率 平均値 (average) μGy/h,
八王子 (Hachioji),2019-04-14,23:01～24:00,0.0334,0.0285,0.0311,
八王子 (Hachioji),2019-04-14,22:01～23:00,0.0332,0.0286,0.0310,
八王子 (Hachioji),2019-04-14,21:01～22:00,0.0339,0.0288,0.0308,
八王子 (Hachioji),2019-04-14,20:01～21:00,0.0325,0.0287,0.0307,
八王子 (Hachioji),2019-04-14,19:01～20:00,0.0334,0.0285,0.0308,
八王子 (Hachioji),2019-04-14,18:01～19:00,0.0322,0.0281,0.0306,
八王子 (Hachioji),2019-04-14,17:01～18:00,0.0330,0.0294,0.0309,
八王子 (Hachioji),2019-04-14,16:01～17:00,0.0329,0.0287,0.0311,
八王子 (Hachioji),2019-04-14,15:01～16:00,0.0324,0.0291,0.0310,
八王子 (Hachioji),2019-04-14,14:01～15:00,0.0332,0.0291,0.0310,
八王子 (Hachioji),2019-04-14,13:01～14:00,0.0333,0.0290,0.0308,
八王子 (Hachioji),2019-04-14,12:01～13:00,0.0338,0.0286,0.0309,
八王子 (Hachioji),2019-04-14,11:01～12:00,0.0332,0.0287,0.0309,
八王子 (Hachioji),2019-04-14,10:01～11:00,0.0336,0.0289,0.0311,
八王子 (Hachioji),2019-04-14,09:01～10:00,0.0344,0.0300,0.0316,
八王子 (Hachioji),2019-04-14,08:01～09:00,0.0349,0.0300,0.0319,
八王子 (Hachioji),2019-04-14,07:01～08:00,0.0336,0.0298,0.0318,
八王子 (Hachioji),2019-04-14,06:01～07:00,0.0338,0.0300,0.0318,
八王子 (Hachioji),2019-04-14,05:01～06:00,0.0338,0.0293,0.0318,
八王子 (Hachioji),2019-04-14,04:01～05:00,0.0336,0.0296,0.0318,
八王子 (Hachioji),2019-04-14,03:01～04:00,0.0340,0.0283,0.0315,
八王子 (Hachioji),2019-04-14,02:01～03:00,0.0330,0.0290,0.0313,
八王子 (Hachioji),2019-04-14,01:01～02:00,0.0334,0.0289,0.0309,
八王子 (Hachioji),2019-04-14,00:01～01:00,0.0334,0.0277,0.0311,
八王子 (Hachioji),2019-04-13,23:01～24:00,0.0331,0.0284,0.0310,
八王子 (Hachioji),2019-04-13,22:01～23:00,0.0328,0.0286,0.0308,
八王子 (Hachioji),2019-04-13,21:01～22:00,0.0324,0.0291,0.0309,
八王子 (Hachioji),2019-04-13,20:01～21:00,0.0331,0.0292,0.0310,
八王子 (Hachioji),2019-04-13,19:01～20:00,0.0330,0.0276,0.0306,
八王子 (Hachioji),2019-04-13,18:01～19:00,0.0327,0.0293,0.0307,
八王子 (Hachioji),2019-04-13,17:01～18:00,0.0333,0.0292,0.0308,
八王子 (Hachioji),2019-04-13,16:01～17:00,0.0322,0.0290,0.0307,
八王子 (Hachioji),2019-04-13,15:01～16:00,0.0332,0.0288,0.0308,
八王子 (Hachioji),2019-04-13,14:01～15:00,0.0338,0.0291,0.0310,
八王子 (Hachioji),2019-04-13,13:01～14:00,0.0333,0.0293,0.0310,
八王子 (Hachioji),2019-04-13,12:01～13:00,0.0336,0.0292,0.0310,
八王子 (Hachioji),2019-04-13,11:01～12:00,0.0330,0.0288,0.0310,
八王子 (Hachioji),2019-04-13,10:01～11:00,0.0348,0.0294,0.0312,
八王子 (Hachioji),2019-04-13,09:01～10:00,0.0328,0.0295,0.0313,
八王子 (Hachioji),2019-04-13,08:01～09:00,0.0330,0.0295,0.0315,
八王子 (Hachioji),2019-04-13,07:01～08:00,0.0336,0.0300,0.0320,
八王子 (Hachioji),2019-04-13,06:01～07:00,0.0340,0.0298,0.0320,
八王子 (Hachioji),2019-04-13,05:01～06:00,0.0339,0.0296,0.0321,
八王子 (Hachioji),2019-04-13,04:01～05:00,0.0347,0.0295,0.0319,
八王子 (Hachioji),2019-04-13,03:01～04:00,0.0339,0.0297,0.0317,
八王子 (Hachioji),2019-04-13,02:01～03:00,0.0336,0.0300,0.0317,
八王子 (Hachioji),2019-04-13,01:01～02:00,0.0347,0.0295,0.0318,
八王子 (Hachioji),2019-04-13,00:01～01:00,0.0331,0.0287,0.0312,
八王子 (Hachioji),2019-04-12,23:01～24:00,0.0330,0.0288,0.0310,
八王子 (Hachioji),2019-04-12,22:01～23:00,0.0326,0.0290,0.0309,
八王子 (Hachioji),2019-04-12,21:01～22:00,0.0325,0.0280,0.0304,
八王子 (Hachioji),2019-04-12,20:01～21:00,0.0331,0.0284,0.0308,
八王子 (Hachioji),2019-04-12,19:01～20:00,0.0320,0.0286,0.0306,
八王子 (Hachioji),2019-04-12,18:01～19:00,0.0331,0.0288,0.0310,
八王子 (Hachioji),2019-04-12,17:01～18:00,0.0328,0.0281,0.0307,
八王子 (Hachioji),2019-04-12,16:01～17:00,0.0332,0.0291,0.0311,
八王子 (Hachioji),2019-04-12,15:01～16:00,0.0340,0.0286,0.0309,
八王子 (Hachioji),2019-04-12,14:01～15:00,0.0324,0.0292,0.0306,
八王子 (Hachioji),2019-04-12,13:01～14:00,0.0328,0.0290,0.0308,
八王子 (Hachioji),2019-04-12,12:01～13:00,0.0326,0.0289,0.0309,
八王子 (Hachioji),2019-04-12,11:01～12:00,0.0325,0.0290,0.0307,
八王子 (Hachioji),2019-04-12,10:01～11:00,0.0327,0.0289,0.0307,
八王子 (Hachioji),2019-04-12,09:01～10:00,0.0325,0.0291,0.0309,
八王子 (Hachioji),2019-04-12,08:01～09:00,0.0334,0.0294,0.0311,
八王子 (Hachioji),2019-04-12,07:01～08:00,0.0332,0.0286,0.0310,
八王子 (Hachioji),2019-04-12,06:01～07:00,0.0330,0.0288,0.0309,
八王子 (Hachioji),2019-04-12,05:01～06:00,0.0326,0.0290,0.0307,
八王子 (Hachioji),2019-04-12,04:01～05:00,0.0336,0.0281,0.0309,
八王子 (Hachioji),2019-04-12,03:01～04:00,0.0330,0.0290,0.0307,
八王子 (Hachioji),2019-04-12,02:01～03:00,0.0336,0.0290,0.0310,
八王子 (Hachioji),2019-04-12,01:01～02:00,0.0331,0.0285,0.0312,
八王子 (Hachioji),2019-04-12,00:01～01:00,0.0335,0.0291,0.0309,
八王子 (Hachioji),2019-04-11,23:01～24:00,0.0330,0.0293,0.0308,
八王子 (Hachioji),2019-04-11,22:01～23:00,0.0324,0.0279,0.0306,
八王子 (Hachioji),2019-04-11,21:01～22:00,0.0329,0.0285,0.0305,
八王子 (Hachioji),2019-04-11,20:01～21:00,0.0331,0.0286,0.0307,
八王子 (Hachioji),2019-04-11,19:01～20:00,0.0325,0.0277,0.0306,
八王子 (Hachioji),2019-04-11,18:01～19:00,0.0331,0.0285,0.0306,
八王子 (Hachioji),2019-04-11,17:01～18:00,0.0324,0.0288,0.0305,
八王子 (Hachioji),2019-04-11,16:01～17:00,0.0326,0.0292,0.0306,
八王子 (Hachioji),2019-04-11,15:01～16:00,0.0326,0.0283,0.0303,
八王子 (Hachioji),2019-04-11,14:01～15:00,0.0341,0.0285,0.0307,
八王子 (Hachioji),2019-04-11,13:01～14:00,0.0330,0.0281,0.0306,
八王子 (Hachioji),2019-04-11,12:01～13:00,0.0323,0.0285,0.0305,
八王子 (Hachioji),2019-04-11,11:01～12:00,0.0322,0.0281,0.0305,
八王子 (Hachioji),2019-04-11,10:01～11:00,0.0332,0.0288,0.0306,
八王子 (Hachioji),2019-04-11,09:01～10:00,0.0328,0.0292,0.0307,
八王子 (Hachioji),2019-04-11,08:01～09:00,0.0327,0.0283,0.0307,
八王子 (Hachioji),2019-04-11,07:01～08:00,0.0336,0.0293,0.0309,
八王子 (Hachioji),2019-04-11,06:01～07:00,0.0332,0.0294,0.0309,
八王子 (Hachioji),2019-04-11,05:01～06:00,0.0335,0.0293,0.0314,
八王子 (Hachioji),2019-04-11,04:01～05:00,0.0347,0.0300,0.0321,
八王子 (Hachioji),2019-04-11,03:01～04:00,0.0389,0.0330,0.0353,
八王子 (Hachioji),2019-04-11,02:01～03:00,0.0386,0.0322,0.0353,
八王子 (Hachioji),2019-04-11,01:01～02:00,0.0362,0.0314,0.0339,
八王子 (Hachioji),2019-04-11,00:01～01:00,0.0373,0.0331,0.0353,
八王子 (Hachioji),2019-04-10,23:01～24:00,0.0385,0.0337,0.0357,
八王子 (Hachioji),2019-04-10,22:01～23:00,0.0415,0.0348,0.0371,
八王子 (Hachioji),2019-04-10,21:01～22:00,0.0432,0.0359,0.0381,
八王子 (Hachioji),2019-04-10,20:01～21:00,0.0429,0.0358,0.0390,
八王子 (Hachioji),2019-04-10,19:01～20:00,0.0448,0.0369,0.0413,
八王子 (Hachioji),2019-04-10,18:01～19:00,0.0489,0.0413,0.0444,
八王子 (Hachioji),2019-04-10,17:01～18:00,0.0492,0.0410,0.0452,
八王子 (Hachioji),2019-04-10,16:01～17:00,0.0475,0.0401,0.0431,
八王子 (Hachioji),2019-04-10,15:01～16:00,0.0473,0.0405,0.0438,
八王子 (Hachioji),2019-04-10,14:01～15:00,0.0486,0.0398,0.0444,
八王子 (Hachioji),2019-04-10,13:01～14:00,0.0453,0.0395,0.0424,
八王子 (Hachioji),2019-04-10,12:01～13:00,0.0455,0.0390,0.0414,
八王子 (Hachioji),2019-04-10,11:01～12:00,0.0483,0.0412,0.0449,
八王子 (Hachioji),2019-04-10,10:01～11:00,0.0514,0.0428,0.0467,
八王子 (Hachioji),2019-04-10,09:01～10:00,0.0485,0.0404,0.0447,
八王子 (Hachioji),2019-04-10,08:01～09:00,0.0505,0.0430,0.0461,
八王子 (Hachioji),2019-04-10,07:01～08:00,0.0484,0.0404,0.0448,
八王子 (Hachioji),2019-04-10,06:01～07:00,0.0445,0.0372,0.0413,
八王子 (Hachioji),2019-04-10,05:01～06:00,0.0434,0.0375,0.0406,
八王子 (Hachioji),2019-04-10,04:01～05:00,0.0440,0.0357,0.0393,
八王子 (Hachioji),2019-04-10,03:01～04:00,0.0360,0.0295,0.0323,
八王子 (Hachioji),2019-04-10,02:01～03:00,0.0342,0.0301,0.0318,
八王子 (Hachioji),2019-04-10,01:01～02:00,0.0344,0.0303,0.0321,
八王子 (Hachioji),2019-04-10,00:01～01:00,0.0335,0.0299,0.0317,
八王子 (Hachioji),2019-04-09,23:01～24:00,0.0334,0.0294,0.0315,
八王子 (Hachioji),2019-04-09,22:01～23:00,0.0342,0.0293,0.0314,
八王子 (Hachioji),2019-04-09,21:01～22:00,0.0329,0.0298,0.0314,
八王子 (Hachioji),2019-04-09,20:01～21:00,0.0338,0.0298,0.0314,
八王子 (Hachioji),2019-04-09,19:01～20:00,0.0338,0.0293,0.0313,
八王子 (Hachioji),2019-04-09,18:01～19:00,0.0337,0.0295,0.0313,
八王子 (Hachioji),2019-04-09,17:01～18:00,0.0335,0.0293,0.0314,
八王子 (Hachioji),2019-04-09,16:01～17:00,0.0333,0.0293,0.0312,
八王子 (Hachioji),2019-04-09,15:01～16:00,0.0330,0.0290,0.0314,
八王子 (Hachioji),2019-04-09,14:01～15:00,0.0335,0.0294,0.0314,
八王子 (Hachioji),2019-04-09,13:01～14:00,0.0338,0.0294,0.0315,
八王子 (Hachioji),2019-04-09,12:01～13:00,0.0341,0.0299,0.0317,
八王子 (Hachioji),2019-04-09,11:01～12:00,0.0337,0.0296,0.0316,
八王子 (Hachioji),2019-04-09,10:01～11:00,0.0338,0.0297,0.0316,
八王子 (Hachioji),2019-04-09,09:01～10:00,0.0333,0.0301,0.0316,
八王子 (Hachioji),2019-04-09,08:01～09:00,0.0331,0.0296,0.0315,
八王子 (Hachioji),2019-04-09,07:01～08:00,0.0339,0.0298,0.0317,
八王子 (Hachioji),2019-04-09,06:01～07:00,0.0342,0.0296,0.0320,
八王子 (Hachioji),2019-04-09,05:01～06:00,0.0340,0.0303,0.0321,
八王子 (Hachioji),2019-04-09,04:01～05:00,0.0337,0.0300,0.0318,
八王子 (Hachioji),2019-04-09,03:01～04:00,0.0335,0.0288,0.0316,
八王子 (Hachioji),2019-04-09,02:01～03:00,0.0341,0.0285,0.0317,
八王子 (Hachioji),2019-04-09,01:01～02:00,0.0332,0.0285,0.0313,
八王子 (Hachioji),2019-04-09,00:01～01:00,0.0337,0.0297,0.0316,
八王子 (Hachioji),2019-04-08,23:01～24:00,0.0335,0.0298,0.0315,
八王子 (Hachioji),2019-04-08,22:01～23:00,0.0341,0.0286,0.0316,
八王子 (Hachioji),2019-04-08,21:01～22:00,0.0344,0.0299,0.0320,
八王子 (Hachioji),2019-04-08,20:01～21:00,0.0356,0.0308,0.0334,
八王子 (Hachioji),2019-04-08,19:01～20:00,0.0361,0.0309,0.0331,
八王子 (Hachioji),2019-04-08,18:01～19:00,0.0382,0.0317,0.0346,
八王子 (Hachioji),2019-04-08,17:01～18:00,0.0379,0.0295,0.0336,
八王子 (Hachioji),2019-04-08,16:01～17:00,0.0332,0.0294,0.0313,
八王子 (Hachioji),2019-04-08,15:01～16:00,0.0334,0.0292,0.0314,
八王子 (Hachioji),2019-04-08,14:01～15:00,0.0337,0.0294,0.0314,
八王子 (Hachioji),2019-04-08,13:01～14:00,0.0330,0.0300,0.0317,
八王子 (Hachioji),2019-04-08,12:01～13:00,0.0330,0.0294,0.0312,
八王子 (Hachioji),2019-04-08,11:01～12:00,0.0344,0.0294,0.0317,
八王子 (Hachioji),2019-04-08,10:01～11:00,0.0356,0.0309,0.0328,
八王子 (Hachioji),2019-04-08,09:01～10:00,0.0418,0.0324,0.0364,
八王子 (Hachioji),2019-04-08,08:01～09:00,0.0519,0.0408,0.0458,
八王子 (Hachioji),2019-04-08,07:01～08:00,0.0588,0.0484,0.0540,
八王子 (Hachioji),2019-04-08,06:01～07:00,0.0529,0.0395,0.0456,
八王子 (Hachioji),2019-04-08,05:01～06:00,0.0435,0.0337,0.0378,
八王子 (Hachioji),2019-04-08,04:01～05:00,0.0387,0.0296,0.0326,
八王子 (Hachioji),2019-04-08,03:01～04:00,0.0351,0.0301,0.0324,
八王子 (Hachioji),2019-04-08,02:01～03:00,0.0351,0.0307,0.0327,
八王子 (Hachioji),2019-04-08,01:01～02:00,0.0352,0.0304,0.0325,
八王子 (Hachioji),2019-04-08,00:01～01:00,0.0354,0.0307,0.0324,
